When you browse on this site, cookies collect data to enhance your experience and personalize the content and advertising you see.
Visit our Privacy Policy to learn more. By continuing to use the site, you agree to this use of cookies and data.
  • Em Portugal
  • Lista de países
  • Para 7 dias
  • Temperatura da água
  • Mapas de satélite
  • Mapa do tempo
  • Widgets de tempo
  • user-avatar
    Iniciar Sessão

    Previsão horária em Potosi

    Hoje, 21 Janeiro, Segunda-feira

    Tempo Temperatura Precipitação Vento Pressão Humidade
    00:00 +9°C° 0 mm 2 m/s 468 mmHg 77%
    01:00 +8°C° 0 mm 2 m/s 468 mmHg 80%
    02:00 +9°C° 0 mm 1 m/s 468 mmHg 83%
    03:00 +9°C° 0 mm 1 m/s 468 mmHg 83%
    04:00 +9°C° 0 mm 1 m/s 468 mmHg 84%
    05:00 +8°C° 0 mm 1 m/s 467 mmHg 84%
    06:00 +9°C° 0 mm 1 m/s 468 mmHg 80%
    07:00 +9°C° 0 mm 1 m/s 468 mmHg 75%
    08:00 +10°C° 0 mm 1 m/s 469 mmHg 71%
    09:00 +11°C° 0 mm 1 m/s 470 mmHg 59%
    10:00 +13°C° 0 mm 2 m/s 471 mmHg 47%
    11:00 +14°C° 0 mm 3 m/s 472 mmHg 35%
    12:00 +15°C° 0 mm 4 m/s 472 mmHg 31%
    13:00 +16°C° 0 mm 5 m/s 472 mmHg 26%
    14:00 +17°C° 0 mm 6 m/s 472 mmHg 22%
    15:00 +16°C° 0 mm 7 m/s 472 mmHg 25%
    16:00 +16°C° 0 mm 7 m/s 471 mmHg 28%
    17:00 +15°C° 0 mm 8 m/s 471 mmHg 31%
    18:00 +14°C° 0 mm 7 m/s 470 mmHg 40%
    19:00 +11°C° 0 mm 6 m/s 470 mmHg 49%
    20:00 +10°C° 0 mm 5 m/s 469 mmHg 58%
    21:00 +10°C° 0.1 mm 4 m/s 469 mmHg 63%
    22:00 +10°C° 0.1 mm 3 m/s 469 mmHg 69%
    23:00 +9°C° 0.1 mm 3 m/s 470 mmHg 74%

    Amanhã, 22 Janeiro, Terça-feira

    Tempo Temperatura Precipitação Vento Pressão Humidade
    00:00 +9°C° 0.1 mm 2 m/s 469 mmHg 76%
    01:00 +8°C° 0.1 mm 2 m/s 469 mmHg 78%
    02:00 +8°C° 0.1 mm 2 m/s 469 mmHg 79%
    03:00 +8°C° 0 mm 2 m/s 469 mmHg 80%
    04:00 +8°C° 0 mm 1 m/s 468 mmHg 81%
    05:00 +8°C° 0 mm 1 m/s 468 mmHg 81%
    06:00 +9°C° 0 mm 1 m/s 469 mmHg 78%
    07:00 +9°C° 0 mm 1 m/s 469 mmHg 74%
    08:00 +9°C° 0 mm 1 m/s 470 mmHg 71%
    09:00 +10°C° 0 mm 2 m/s 471 mmHg 59%
    10:00 +12°C° 0 mm 3 m/s 472 mmHg 48%
    11:00 +13°C° 0 mm 3 m/s 472 mmHg 36%
    12:00 +14°C° 0 mm 4 m/s 472 mmHg 34%
    13:00 +15°C° 0 mm 5 m/s 472 mmHg 32%
    14:00 +16°C° 0 mm 6 m/s 472 mmHg 30%
    15:00 +16°C° 0 mm 7 m/s 472 mmHg 34%
    16:00 +15°C° 0 mm 7 m/s 471 mmHg 38%
    17:00 +15°C° 0 mm 7 m/s 470 mmHg 42%
    18:00 +13°C° 0.1 mm 6 m/s 470 mmHg 48%
    19:00 +12°C° 0.1 mm 5 m/s 469 mmHg 54%
    20:00 +10°C° 0.1 mm 4 m/s 469 mmHg 61%
    21:00 +10°C° 0 mm 4 m/s 469 mmHg 64%
    22:00 +9°C° 0 mm 3 m/s 469 mmHg 67%
    23:00 +9°C° 0 mm 2 m/s 470 mmHg 70%

    Depois de amanhã, 23 Janeiro, Quarta-feira

    Tempo Temperatura Precipitação Vento Pressão Humidade
    00:00 +8°C° 0 mm 2 m/s 469 mmHg 73%
    01:00 +9°C° 0 mm 1 m/s 469 mmHg 75%
    02:00 +9°C° 0 mm 1 m/s 468 mmHg 78%
    03:00 +8°C° 0 mm 1 m/s 468 mmHg 79%
    04:00 +7°C° 0 mm 0 m/s 468 mmHg 80%
    05:00 +7°C° 0 mm 0 m/s 468 mmHg 81%
    06:00 +7°C° 0 mm 0 m/s 468 mmHg 75%
    07:00 +8°C° 0 mm 0 m/s 469 mmHg 70%
    08:00 +9°C° 0 mm 0 m/s 470 mmHg 64%
    09:00 +10°C° 0 mm 2 m/s 471 mmHg 56%
    10:00 +12°C° 0 mm 3 m/s 472 mmHg 47%
    11:00 +13°C° 0 mm 4 m/s 473 mmHg 38%
    12:00 +14°C° 0 mm 5 m/s 473 mmHg 37%
    13:00 +15°C° 0 mm 6 m/s 473 mmHg 35%
    14:00 +16°C° 0 mm 7 m/s 473 mmHg 33%
    15:00 +15°C° 0.1 mm 7 m/s 472 mmHg 37%
    16:00 +15°C° 0.1 mm 7 m/s 471 mmHg 40%
    17:00 +14°C° 0.1 mm 7 m/s 471 mmHg 43%
    18:00 +13°C° 0.1 mm 6 m/s 470 mmHg 49%
    19:00 +12°C° 0.1 mm 5 m/s 470 mmHg 54%
    20:00 +11°C° 0.1 mm 4 m/s 470 mmHg 59%
    21:00 +10°C° 0 mm 4 m/s 470 mmHg 63%
    22:00 +10°C° 0 mm 3 m/s 470 mmHg 66%
    23:00 +9°C° 0 mm 2 m/s 470 mmHg 70%

    24 Janeiro, Quinta-feira

    Tempo Temperatura Precipitação Vento Pressão Humidade
    00:00 +9°C° 0 mm 2 m/s 469 mmHg 72%
    01:00 +8°C° 0 mm 2 m/s 469 mmHg 75%
    02:00 +8°C° 0 mm 2 m/s 468 mmHg 78%
    03:00 +8°C° 0 mm 1 m/s 468 mmHg 80%
    04:00 +8°C° 0 mm 1 m/s 468 mmHg 82%
    05:00 +6°C° 0 mm 0 m/s 467 mmHg 84%
    06:00 +7°C° 0 mm 0 m/s 468 mmHg 78%
    07:00 +9°C° 0 mm 1 m/s 469 mmHg 72%
    08:00 +9°C° 0 mm 1 m/s 470 mmHg 66%
    09:00 +10°C° 0 mm 2 m/s 471 mmHg 57%
    10:00 +12°C° 0 mm 3 m/s 472 mmHg 48%
    11:00 +13°C° 0 mm 4 m/s 473 mmHg 39%
    12:00 +14°C° 0 mm 4 m/s 473 mmHg 36%
    13:00 +15°C° 0 mm 5 m/s 473 mmHg 33%
    14:00 +16°C° 0 mm 6 m/s 473 mmHg 30%
    15:00 +16°C° 0 mm 6 m/s 472 mmHg 31%
    16:00 +16°C° 0 mm 7 m/s 472 mmHg 32%
    17:00 +16°C° 0 mm 7 m/s 471 mmHg 34%
    18:00 +14°C° 0 mm 7 m/s 470 mmHg 38%
    19:00 +13°C° 0 mm 6 m/s 470 mmHg 43%
    20:00 +10°C° 0 mm 6 m/s 469 mmHg 48%
    21:00 +10°C° 0 mm 5 m/s 469 mmHg 52%
    22:00 +10°C° 0 mm 3 m/s 469 mmHg 56%
    23:00 +9°C° 0 mm 2 m/s 469 mmHg 60%

    25 Janeiro, Sexta-feira

    Tempo Temperatura Precipitação Vento Pressão Humidade
    00:00 +9°C° 0 mm 2 m/s 469 mmHg 63%
    01:00 +8°C° 0 mm 2 m/s 468 mmHg 66%
    02:00 +8°C° 0 mm 2 m/s 468 mmHg 68%
    03:00 +9°C° 0 mm 1 m/s 467 mmHg 69%
    04:00 +8°C° 0 mm 1 m/s 467 mmHg 70%
    05:00 +8°C° 0 mm 1 m/s 467 mmHg 71%
    06:00 +9°C° 0 mm 1 m/s 468 mmHg 66%
    07:00 +10°C° 0 mm 1 m/s 469 mmHg 60%
    08:00 +10°C° 0 mm 1 m/s 470 mmHg 54%
    09:00 +12°C° 0 mm 1 m/s 471 mmHg 45%
    10:00 +14°C° 0 mm 2 m/s 471 mmHg 36%
    11:00 +16°C° 0 mm 2 m/s 472 mmHg 27%
    12:00 +17°C° 0 mm 2 m/s 472 mmHg 25%
    13:00 +18°C° 0 mm 3 m/s 472 mmHg 23%
    14:00 +19°C° 0 mm 4 m/s 472 mmHg 22%
    15:00 +19°C° 0 mm 5 m/s 472 mmHg 23%
    16:00 +19°C° 0 mm 6 m/s 471 mmHg 25%
    17:00 +17°C° 0 mm 6 m/s 471 mmHg 27%
    18:00 +16°C° 0 mm 6 m/s 470 mmHg 31%
    19:00 +14°C° 0 mm 6 m/s 470 mmHg 34%
    20:00 +13°C° 0 mm 5 m/s 469 mmHg 38%
    21:00 +12°C° 0 mm 5 m/s 469 mmHg 42%
    22:00 +11°C° 0 mm 4 m/s 469 mmHg 46%
    23:00 +11°C° 0 mm 3 m/s 470 mmHg 49%

    26 Janeiro, Sábado

    Tempo Temperatura Precipitação Vento Pressão Humidade
    00:00 +10°C° 0 mm 2 m/s 469 mmHg 54%
    01:00 +10°C° 0 mm 2 m/s 469 mmHg 58%
    02:00 +10°C° 0 mm 1 m/s 468 mmHg 62%
    03:00 +10°C° 0 mm 1 m/s 468 mmHg 64%
    04:00 +10°C° 0 mm 1 m/s 468 mmHg 66%
    05:00 +9°C° 0 mm 1 m/s 468 mmHg 67%
    06:00 +10°C° 0 mm 1 m/s 468 mmHg 65%
    07:00 +10°C° 0 mm 1 m/s 469 mmHg 62%
    08:00 +10°C° 0 mm 1 m/s 469 mmHg 59%
    09:00 +12°C° 0 mm 2 m/s 470 mmHg 53%
    10:00 +12°C° 0 mm 3 m/s 471 mmHg 46%
    11:00 +13°C° 0 mm 3 m/s 471 mmHg 40%
    12:00 +14°C° 0 mm 4 m/s 472 mmHg 36%
    13:00 +15°C° 0 mm 6 m/s 472 mmHg 33%
    14:00 +16°C° 0 mm 7 m/s 472 mmHg 30%
    15:00 +15°C° 0.2 mm 7 m/s 471 mmHg 37%
    16:00 +13°C° 0.2 mm 8 m/s 470 mmHg 44%
    17:00 +12°C° 0.2 mm 9 m/s 469 mmHg 50%
    18:00 +11°C° 0.5 mm 7 m/s 469 mmHg 57%
    19:00 +10°C° 0.5 mm 6 m/s 469 mmHg 63%
    20:00 +9°C° 0.5 mm 5 m/s 469 mmHg 69%
    21:00 +8°C° 0.2 mm 4 m/s 469 mmHg 72%
    22:00 +9°C° 0.2 mm 3 m/s 469 mmHg 75%
    23:00 +8°C° 0.2 mm 2 m/s 470 mmHg 77%
    Mostrar mais